星链-3511 (STARLINK-3511 )

导读 | 豆包AI

STARLINK-3511是美国太空探索技术公司星链星座的卫星,于2022年2月21日发射升空,属于星链互联网卫星组网的一部分,承担为全球提供低延迟、高速宽带互联网服务的任务。它运行在近地轨道,依托星链大规模组网优势,可覆盖偏远区域,补充全球网络覆盖。

基本信息
目录编号:
51752
目录名称:
STARLINK-3511
国际标识:
2022-016AQ
轨道中心:
EARTH
卫星名称:
星链-3511
卫星全名:
星链-3511 (STARLINK-3511 )
卫星状态:
在轨 (已飞行1482 天)
发射日期:
2022-02-21 UTC
国别 :
美国 (US)
星等 :
--
轨道信息
数据来源 国际轨道数据
星历时间: 2026-03-14T04:44:02+0800
23小时前
查看轨道信息
半长轴: 6917.842km
偏心率: 0.0001062
轨道倾角: 53.217°
近地点辐角 76.626°
升交点赤经 290.316°
平近点角 283.485°
近地点: 538.97km
远地点: 540.44km
周期: 95.437分钟
每日圈数: 15.088526
详细信息
固有亮度:
5
最大亮度:
2.5
卫星平台:
Starlink v1.5
覆盖范围:
全球
运营商:
太空探索技术公司
运营商所在国:
美国
制造商(研发单位):
太空探索技术公司
制造商所在国:
美国
使用方式:
暂无
卫星简介
星链(Starlink)计划是由太空探索技术公司(SpaceX)提出的一个巨型低轨卫星互联网星座项目,计划在2019年至2024年间在太空搭建由约1.2万颗卫星组成的“星链”网络,其中1584颗将部署在地球上空550千米处的近地轨道,并从2020年开始工作。该卫星仍在工作。
2D轨道图
3D轨道图
轨道高度分析图
轨道倾角分析图
轨道综合分析图
查看轨道综合分析图